Location: Newark
(51.2625°N, 13.3939°E)
Time: 05:21:29
(UTC+00:00)

deb Explorer IX - Pass Details

Date: 21 November 2019
Orbit: 545 x 1105 km, 38.8° (Epoch: 05 December)

Event Time Altitude Azimuth Distance (km) Brightness Sun altitude
Rises 03:15:55 0° 257° (WSW) 3,482 - -30.3°
Reaches altitude 10° 03:19:32 10° 238° (WSW) 2,416 - -29.7°
Maximum altitude 03:22:57 16° 201° (SSW) 1,887 - -29.2°
Exits shadow 03:25:21 12° 171° (S) 2,046 ? -28.8°
Drops below altitude 10° 03:26:05 10° 163° (SSE) 2,179 ? -28.7°
Sets 03:29:07 0° 142° (SE) 2,988 ? -28.2°
